Location: Hamayl? Da??
(36.7028°N, 30.1716°E)
Time: 12:14:34
(UTC+00:00)

Cosmos 2322 Rocket - Pass Details

Date: 04 August 2024
Orbit: 830 x 851 km, 71.0° (Epoch: 11 September)

Event Time Altitude Azimuth Distance (km) Brightness Sun altitude
Exits shadow 22:50:38 29° 60° (ENE) 1,511 3.8 -35.3°
Drops below altitude 10° 22:53:44 10° 37° (NE) 2,473 5.3 -35.2°
Sets 22:56:19 0° 30° (NNE) 3,415 6.3 -35.1°
